This is the latest recevied weather packets stored in our database for station/object KB3HLL. If no packets are shown the sender has not sent any weather packets the latest 10 day(s).
| Time | Temp. | Humidity | Pressure | Rain* | Wind** | Luminosity | Snow |
|---|---|---|---|---|---|---|---|
| 1777574177 | 10.56° C | 77% | 1009.5 hPa | 0 mm | - | 330 W/m² | - |
| 1777573878 | 10° C | 79% | 1009.4 hPa | 0 mm | - | 529 W/m² | - |
| 1777573579 | 10° C | 79% | 1009.5 hPa | 0 mm | - | 391 W/m² | - |
| 1777573280 | 10° C | 79% | 1009.5 hPa | 0 mm | - | 261 W/m² | - |
| 1777572978 | 10° C | 81% | 1009.6 hPa | 0 mm | - | 219 W/m² | - |
| 1777572679 | 10° C | 79% | 1009.5 hPa | 0 mm | - | 317 W/m² | - |
| 1777572378 | 10° C | 79% | 1009.6 hPa | 0 mm | - | 309 W/m² | - |
| 1777572079 | 10° C | 78% | 1009.6 hPa | 0 mm | - | 292 W/m² | - |
| 1777571778 | 10° C | 80% | 1009.6 hPa | 0 mm | - | 375 W/m² | - |
| 1777571478 | 10° C | 79% | 1009.5 hPa | 0 mm | - | 347 W/m² | - |
| 1777571178 | 10° C | 79% | 1009.6 hPa | 0 mm | - | 390 W/m² | - |
| 1777570878 | 10° C | 80% | 1009.6 hPa | 0 mm | - | 366 W/m² | - |
| 1777570580 | 10° C | 79% | 1009.6 hPa | 0 mm | - | 323 W/m² | - |
| 1777570278 | 10° C | 81% | 1009.6 hPa | 0 mm | - | 299 W/m² | - |
| 1777569978 | 10° C | 79% | 1009.8 hPa | 0 mm | - | 284 W/m² | - |
| 1777569678 | 10° C | 79% | 1009.8 hPa | 0 mm | - | 334 W/m² | - |
| 1777569378 | 10° C | 81% | 1009.8 hPa | 0 mm | - | 416 W/m² | - |
| 1777569077 | 9.44° C | 82% | 1009.8 hPa | 0 mm | - | 417 W/m² | - |
| 1777568490 | 9.44° C | 84% | 1009.9 hPa | 0 mm | - | 213 W/m² | - |
| 1777568180 | 9.44° C | 83% | 1009.9 hPa | 0 mm | - | 154 W/m² | - |
| 1777567881 | 9.44° C | 81% | 1010 hPa | 0 mm | - | 185 W/m² | - |
| 1777567577 | 9.44° C | 83% | 1009.9 hPa | 0 mm | - | 185 W/m² | - |
| 1777567278 | 9.44° C | 80% | 1010 hPa | 0 mm | - | 250 W/m² | - |
| 1777566979 | 9.44° C | 81% | 1010 hPa | 0 mm | - | 297 W/m² | - |
| 1777566678 | 10° C | 81% | 1010 hPa | 0 mm | - | 323 W/m² | - |
* Rain latest hour (hover to see other rain measurements)
** Current wind speed in m/s (hover to see current wind gust speed)